Tracking 22989 objects as of 8-May-2021
HD Live streaming from Space Station
objects crossing your sky now

THORAD AGENA D DEB

Track THORAD AGENA D DEB now!
10-day predictions


NORAD ID: 5842
Int'l Code: 1970-025ML
Perigee: 679.6 km
Apogee: 725.1 km
Inclination: 100.0 °
Period: 98.7 minutes
Semi major axis: 7073 km
RCS: 0.026 m2 (small)
Launch date: April 8, 1970
Source: United States (US)
Launch site: AIR FORCE WESTERN TEST RANGE (AFWTR)

Note: This is SATELLITE DEBRIS
aabbcc
Your satellite tracking list
Your tracking list is empty




NASA's NSSDC Master Catalog

Two Line Element Set (TLE):
1 05842U 70025ML  21127.91362411  .00001620  00000-0  35370-3 0  9993
2 05842 100.0014 277.9852 0032173 322.7132  37.1829 14.59381599626359
Source of the keplerian elements: AFSPC